Regional Weather Roundup
Issued by NWS Goodland, KS

Home | Current Version | Previous Version | Text Only | Print | Product List | Glossary Off
Versions: 1 2 3 4 5 6 7 8 9 10 11 12 13 14 15 16 17 18 19 20 21 22 23 24 25 26 27 28 29 30 31 32 33 34 35 36 37 38 39 40 41 42 43 44 45 46 47 48 49 50

000
ASUS43 KGLD 110008
RWRGLD

GOODLAND FORECAST AREA HOURLY WEATHER ROUNDUP
NATIONAL WEATHER SERVICE GOODLAND KS
500 PM MST WED FEB 10 2016

...OFFICIAL OBSERVATIONS...

CITY           SKY/WX    TMP DP  RH WIND       PRES   REMARKS
GOODLAND KS    CLEAR     51  31  46 NW8       30.04R
HILL CITY KS   CLOUDY    50  31  48 NW14      29.97R
IMPERIAL NEB   CLOUDY    46  29  51 W12       29.99S
MCCOOK NEB     CLEAR     49  30  48 NW12G18   29.96S
AKRON CO       CLOUDY    45  29  53 N10       30.08R
BURLINGTON CO  CLEAR     43  30  60 SW9       30.05R
LIMON CO       CLOUDY    40  28  62 W7        30.10R
$$

...UNOFFICIAL OBSERVATIONS...

CITY           SKY/WX    TMP DP  RH WIND       PRES   REMARKS
COLBY KS       CLEAR     45  36  70 W14       30.02
TRENTON NEB      N/A     44  32  63 MISG        N/A
$$



USA.gov is the U.S. government's official web portal to all federal, state and local government web resources and services.